Time,TemperatureF,DewpointF,PressureIn,WindDirection,WindDirectionDegrees,WindSpeedMPH,WindSpeedGustMPH,Humidity,HourlyPrecipIn,Conditions,Clouds,dailyrainin,SoftwareType,DateUTC
2013-08-23 00:22:00,59.0,51.0,30.00,SE,129,5.0,-999.0,75,-99.99,,,-99.99,,2013-08-23 05:22:00,
2013-08-23 00:52:00,58.0,51.0,29.99,SE,126,4.0,-999.0,78,-99.99,,,-99.99,,2013-08-23 05:52:00,
2013-08-23 01:12:00,59.0,52.0,29.99,SE,132,6.0,-999.0,77,-99.99,,,-99.99,,2013-08-23 06:12:00,
2013-08-23 01:22:00,59.0,52.0,29.98,SE,129,7.0,-999.0,77,-99.99,,,-99.99,,2013-08-23 06:22:00,
2013-08-23 01:42:00,59.0,51.0,29.98,SE,126,8.0,-999.0,76,-99.99,,,-99.99,,2013-08-23 06:42:00,
2013-08-23 01:52:00,59.0,51.0,29.98,SE,139,8.0,-999.0,76,-99.99,,,-99.99,,2013-08-23 06:52:00,
2013-08-23 02:12:00,58.0,51.0,29.98,SE,135,9.0,-999.0,77,-99.99,,,-99.99,,2013-08-23 07:12:00,
2013-08-23 02:22:00,57.0,51.0,29.97,SE,137,7.0,-999.0,79,-99.99,,,-99.99,,2013-08-23 07:22:00,
2013-08-23 02:52:00,56.0,51.0,29.96,SE,128,6.0,-999.0,82,-99.99,,,-99.99,,2013-08-23 07:52:00,
2013-08-23 03:13:00,56.0,51.0,29.96,SE,136,5.0,-999.0,82,-99.99,,,-99.99,,2013-08-23 08:13:00,
2013-08-23 03:22:00,56.0,51.0,29.95,SE,137,5.0,-999.0,83,-99.99,,,-99.99,,2013-08-23 08:22:00,
2013-08-23 03:52:00,55.0,51.0,29.94,SE,136,4.0,-999.0,85,-99.99,,,-99.99,,2013-08-23 08:52:00,
2013-08-23 04:12:00,54.0,50.0,29.94,SE,136,4.0,-999.0,86,-99.99,,,-99.99,,2013-08-23 09:12:00,
2013-08-23 04:21:00,55.0,51.0,29.93,SE,135,4.0,-999.0,87,-99.99,,,-99.99,,2013-08-23 09:21:00,
2013-08-23 04:53:00,55.0,51.0,29.93,SE,137,4.0,-999.0,87,-99.99,,,-99.99,,2013-08-23 09:53:00,
2013-08-23 05:13:00,55.0,51.0,29.92,SE,136,4.0,-999.0,87,-99.99,,,-99.99,,2013-08-23 10:13:00,
2013-08-23 05:23:00,55.0,51.0,29.92,SE,136,4.0,-999.0,87,-99.99,,,-99.99,,2013-08-23 10:23:00,
2013-08-23 05:52:00,55.0,52.0,29.91,SE,134,5.0,-999.0,88,-99.99,,,-99.99,,2013-08-23 10:52:00,
2013-08-23 06:11:00,55.0,52.0,29.91,SE,133,4.0,-999.0,88,-99.99,,,-99.99,,2013-08-23 11:11:00,
2013-08-23 06:22:00,56.0,52.0,29.91,SE,132,6.0,-999.0,87,-99.99,,,-99.99,,2013-08-23 11:22:00,
2013-08-23 06:53:00,57.0,53.0,29.90,SE,136,8.0,-999.0,85,-99.99,,,-99.99,,2013-08-23 11:53:00,
2013-08-23 07:11:00,57.0,53.0,29.90,SE,140,6.0,-999.0,85,-99.99,,,-99.99,,2013-08-23 12:11:00,
2013-08-23 07:22:00,58.0,53.0,29.89,SE,140,7.0,-999.0,84,-99.99,,,-99.99,,2013-08-23 12:22:00,
2013-08-23 07:42:00,59.0,54.0,29.89,SE,145,9.0,-999.0,82,-99.99,,,-99.99,,2013-08-23 12:42:00,
2013-08-23 07:52:00,59.0,53.0,29.89,SE,140,9.0,-999.0,81,-99.99,,,-99.99,,2013-08-23 12:52:00,
2013-08-23 08:22:00,61.0,54.0,29.88,SE,144,8.0,-999.0,79,-99.99,,,-99.99,,2013-08-23 13:22:00,
2013-08-23 08:42:00,62.0,55.0,29.88,SE,128,8.0,-999.0,79,-99.99,,,-99.99,,2013-08-23 13:42:00,
2013-08-23 08:52:00,64.0,57.0,29.87,SE,144,8.0,-999.0,77,-99.99,,,-99.99,,2013-08-23 13:52:00,
2013-08-23 09:12:00,66.0,57.0,29.87,SSE,160,10.0,-999.0,74,-99.99,,,-99.99,,2013-08-23 14:12:00,
2013-08-23 09:21:00,67.0,58.0,29.87,SSE,163,11.0,-999.0,74,-99.99,,,-99.99,,2013-08-23 14:21:00,
2013-08-23 09:52:00,70.0,60.0,29.86,SE,144,12.0,-999.0,71,-99.99,,,-99.99,,2013-08-23 14:52:00,
2013-08-23 10:11:00,70.0,61.0,29.86,SSE,149,11.0,-999.0,73,-99.99,,,-99.99,,2013-08-23 15:11:00,
2013-08-23 10:22:00,72.0,62.0,29.85,South,170,10.0,-999.0,71,-99.99,,,-99.99,,2013-08-23 15:22:00,
2013-08-23 10:54:00,75.0,64.0,29.84,SSE,157,11.0,-999.0,69,-99.99,,,-99.99,,2013-08-23 15:54:00,
2013-08-23 11:13:00,77.0,66.0,29.83,SSE,150,11.0,-999.0,68,-99.99,,,-99.99,,2013-08-23 16:13:00,
2013-08-23 11:24:00,78.0,66.0,29.83,SSE,154,11.0,-999.0,67,-99.99,,,-99.99,,2013-08-23 16:24:00,
2013-08-23 11:42:00,78.0,66.0,29.82,SSE,152,13.0,-999.0,67,-99.99,,,-99.99,,2013-08-23 16:42:00,
2013-08-23 11:53:00,79.0,66.0,29.81,SSE,159,14.0,-999.0,65,-99.99,,,-99.99,,2013-08-23 16:53:00,
2013-08-23 12:13:00,80.0,67.0,29.80,SSE,159,15.0,-999.0,64,-99.99,,,-99.99,,2013-08-23 17:13:00,
2013-08-23 12:23:00,80.0,66.0,29.80,SSE,155,15.0,-999.0,63,-99.99,,,-99.99,,2013-08-23 17:23:00,
2013-08-23 12:43:00,81.0,68.0,29.80,SSE,150,15.0,-999.0,64,-99.99,,,-99.99,,2013-08-23 17:43:00,
2013-08-23 12:53:00,81.0,67.0,29.79,SE,140,15.0,-999.0,63,-99.99,,,-99.99,,2013-08-23 17:53:00,
2013-08-23 13:12:00,82.0,69.0,29.79,SSE,161,15.0,-999.0,64,-99.99,,,-99.99,,2013-08-23 18:12:00,
2013-08-23 13:22:00,82.0,68.0,29.78,SE,141,16.0,-999.0,63,-99.99,,,-99.99,,2013-08-23 18:22:00,
2013-08-23 13:52:00,84.0,69.0,29.78,South,174,16.0,-999.0,61,-99.99,,,-99.99,,2013-08-23 18:52:00,
2013-08-23 14:12:00,84.0,68.0,29.77,SSE,157,15.0,-999.0,59,-99.99,,,-99.99,,2013-08-23 19:12:00,
2013-08-23 14:22:00,85.0,70.0,29.76,SSE,163,16.0,-999.0,60,-99.99,,,-99.99,,2013-08-23 19:22:00,
2013-08-23 14:42:00,84.0,68.0,29.76,SSE,160,15.0,-999.0,59,-99.99,,,-99.99,,2013-08-23 19:42:00,
2013-08-23 14:52:00,84.0,68.0,29.76,South,175,15.0,-999.0,58,-99.99,,,-99.99,,2013-08-23 19:52:00,
2013-08-23 15:12:00,86.0,69.0,29.75,SSE,152,13.0,-999.0,57,-99.99,,,-99.99,,2013-08-23 20:12:00,
2013-08-23 15:22:00,86.0,69.0,29.75,SSE,163,16.0,-999.0,57,-99.99,,,-99.99,,2013-08-23 20:22:00,
2013-08-23 15:52:00,85.0,68.0,29.73,SE,145,15.0,-999.0,57,-99.99,,,-99.99,,2013-08-23 20:52:00,
2013-08-23 16:11:00,86.0,68.0,29.72,South,171,13.0,-999.0,56,-99.99,,,-99.99,,2013-08-23 21:11:00,
2013-08-23 16:22:00,85.0,69.0,29.72,SSE,157,11.0,-999.0,58,-99.99,,,-99.99,,2013-08-23 21:22:00,
2013-08-23 16:54:00,86.0,68.0,29.72,SSE,163,11.0,-999.0,56,-99.99,,,-99.99,,2013-08-23 21:54:00,
2013-08-23 17:13:00,87.0,69.0,29.71,SSE,162,9.0,-999.0,55,-99.99,,,-99.99,,2013-08-23 22:13:00,
2013-08-23 17:24:00,89.0,70.0,29.70,SE,142,11.0,-999.0,53,-99.99,,,-99.99,,2013-08-23 22:24:00,
2013-08-23 17:43:00,87.0,67.0,29.70,SSE,167,12.0,-999.0,52,-99.99,,,-99.99,,2013-08-23 22:43:00,
2013-08-23 17:53:00,87.0,68.0,29.69,SSE,163,10.0,-999.0,53,-99.99,,,-99.99,,2013-08-23 22:53:00,
2013-08-23 18:12:00,88.0,68.0,29.69,SE,146,14.0,-999.0,52,-99.99,,,-99.99,,2013-08-23 23:12:00,
2013-08-23 18:22:00,87.0,68.0,29.69,SSE,150,15.0,-999.0,53,-99.99,,,-99.99,,2013-08-23 23:22:00,
2013-08-23 18:43:00,87.0,67.0,29.68,SSE,157,14.0,-999.0,52,-99.99,,,-99.99,,2013-08-23 23:43:00,
2013-08-23 18:54:00,88.0,68.0,29.67,SSE,151,14.0,-999.0,51,-99.99,,,-99.99,,2013-08-23 23:54:00,
2013-08-23 19:11:00,87.0,67.0,29.67,SSE,147,12.0,-999.0,51,-99.99,,,-99.99,,2013-08-24 00:11:00,
2013-08-23 19:21:00,86.0,67.0,29.67,SE,142,14.0,-999.0,53,-99.99,,,-99.99,,2013-08-24 00:21:00,
2013-08-23 19:43:00,85.0,68.0,29.67,SSE,148,11.0,-999.0,56,-99.99,,,-99.99,,2013-08-24 00:43:00,
2013-08-23 19:53:00,84.0,68.0,29.66,SE,140,11.0,-999.0,58,-99.99,,,-99.99,,2013-08-24 00:53:00,
2013-08-23 20:11:00,83.0,68.0,29.66,SE,136,9.0,-999.0,60,-99.99,,,-99.99,,2013-08-24 01:11:00,
2013-08-23 20:22:00,83.0,68.0,29.65,SE,136,9.0,-999.0,60,-99.99,,,-99.99,,2013-08-24 01:22:00,
2013-08-23 20:42:00,82.0,68.0,29.64,SE,130,7.0,-999.0,62,-99.99,,,-99.99,,2013-08-24 01:42:00,
2013-08-23 20:53:00,80.0,67.0,29.65,SE,129,6.0,-999.0,65,-99.99,,,-99.99,,2013-08-24 01:53:00,
2013-08-23 21:12:00,79.0,67.0,29.65,SE,130,7.0,-999.0,66,-99.99,,,-99.99,,2013-08-24 02:12:00,
2013-08-23 21:22:00,78.0,67.0,29.65,SE,125,7.0,-999.0,68,-99.99,,,-99.99,,2013-08-24 02:22:00,
2013-08-23 21:42:00,77.0,66.0,29.65,SE,130,7.0,-999.0,70,-99.99,,,-99.99,,2013-08-24 02:42:00,
2013-08-23 21:52:00,77.0,67.0,29.66,SE,126,7.0,-999.0,71,-99.99,,,-99.99,,2013-08-24 02:52:00,
2013-08-23 22:12:00,77.0,67.0,29.66,SE,132,8.0,-999.0,71,-99.99,,,-99.99,,2013-08-24 03:12:00,
2013-08-23 22:22:00,76.0,66.0,29.66,SE,134,8.0,-999.0,72,-99.99,,,-99.99,,2013-08-24 03:22:00,
2013-08-23 22:44:00,76.0,67.0,29.65,SE,137,8.0,-999.0,74,-99.99,,,-99.99,,2013-08-24 03:44:00,
2013-08-23 22:54:00,75.0,67.0,29.65,SE,137,7.0,-999.0,75,-99.99,,,-99.99,,2013-08-24 03:54:00,
2013-08-23 23:14:00,75.0,67.0,29.65,SE,137,7.0,-999.0,76,-99.99,,,-99.99,,2013-08-24 04:14:00,
2013-08-23 23:24:00,74.0,66.0,29.65,SE,144,7.0,-999.0,77,-99.99,,,-99.99,,2013-08-24 04:24:00,
2013-08-23 23:44:00,74.0,67.0,29.65,SE,134,8.0,-999.0,78,-99.99,,,-99.99,,2013-08-24 04:44:00,
2013-08-23 23:53:00,74.0,67.0,29.65,SE,134,8.0,-999.0,79,-99.99,,,-99.99,,2013-08-24 04:53:00,